Theta_e
324 324 324 325 325 325 324 324 325 325 326 327 327 328 329 328 328 329 329 329 328 328 329 329 329 330 330 330 330 330 327 327 317 314 309 310 322 327 328 331 332 333 332 320 320 312 310 312 309 311 312 314 316 313 315 317 312 311 304 302 296 297 295 298 298 298 300 298 299 300 300 299 297 299 301 302 300 301 302 301 302 304 302 303 304 303 303 304
324 324 324 324 324 324 324 324 324 325 326 327 328 328 328 328 328 329 329 328 328 328 328 329 329 329 330 329 329 328 325 330 316 312 309 318 325 328 330 331 332 331 327 314 310 308 309 307 308 309 309 308 318 311 316 314 315 307 301 298 295 296 298 300 299 300 298 297 299 300 300 299 298 298 300 297 299 299 299 299 300 300 300 301 301 301 300 301
323 323 323 323 323 323 324 324 324 325 326 327 327 328 327 327 327 328 328 327 327 328 328 328 329 330 329 328 328 326 325 329 321 308 313 328 328 329 331 332 331 331 323 312 311 309 307 307 308 308 309 305 311 310 312 311 311 307 301 296 297 301 299 301 301 300 301 300 299 299 299 298 299 299 301 300 297 298 296 295 297 297 296 297 298 299 299 299
323 323 323 323 323 323 323 323 323 324 326 327 327 327 327 325 326 327 327 328 328 328 329 329 329 329 329 328 327 325 329 323 313 310 313 330 327 331 331 330 332 328 318 312 312 310 309 310 309 309 311 305 309 312 307 311 307 306 300 298 300 299 299 299 300 301 300 300 298 298 299 298 298 300 300 298 295 297 297 298 297 296 296 297 297 298 297 297
323 322 322 322 322 322 322 322 324 325 325 326 327 328 325 325 326 326 326 327 328 328 328 329 329 329 328 327 325 327 334 310 308 315 315 329 328 331 331 330 331 326 316 313 311 310 310 310 309 310 311 303 308 305 302 306 307 304 298 301 301 299 299 301 301 301 299 299 298 298 296 296 300 301 299 298 294 292 296 298 298 297 297 296 295 297 297 296
322 322 322 322 321 321 321 322 324 324 325 326 327 328 326 325 325 325 325 326 327 328 329 329 330 329 328 323 324 329 323 299 315 318 326 325 329 330 332 331 330 325 318 316 312 311 309 309 306 308 303 300 301 298 301 303 306 296 300 300 299 299 299 301 301 300 298 298 297 296 298 298 298 298 299 298 297 298 300 299 298 298 297 297 297 296 295 295
321 321 321 321 321 321 320 322 323 323 325 326 327 326 328 327 325 325 325 326 327 328 329 329 329 328 324 322 330 324 318 311 318 321 326 326 326 327 329 328 326 322 314 311 310 309 308 308 305 303 301 301 301 301 303 305 306 299 296 299 299 300 300 302 299 299 298 298 297 298 298 297 297 295 299 298 300 300 300 299 298 298 297 296 295 295 295 295
321 320 320 319 319 319 320 321 322 323 324 325 326 326 327 325 324 324 325 326 327 329 329 329 328 327 325 329 330 321 317 311 310 320 322 324 317 316 320 320 318 315 312 309 308 307 307 305 303 304 301 300 302 300 304 303 301 299 298 300 299 300 300 301 298 298 299 299 298 297 295 296 298 297 298 297 299 299 298 298 297 297 296 295 294 294 294 294
321 320 319 319 319 319 319 321 322 323 324 325 324 326 327 325 324 324 324 326 328 328 328 328 327 325 324 322 324 311 310 318 318 315 317 315 313 313 318 313 313 313 310 311 310 310 309 305 305 303 298 300 302 299 301 297 296 301 300 299 300 300 300 299 299 299 298 299 297 295 295 297 298 301 297 299 298 298 298 297 296 295 295 294 293 293 293 293
321 320 319 318 318 318 320 320 321 322 324 325 325 326 326 324 323 323 325 326 327 328 328 327 325 322 326 326 321 305 317 316 319 316 315 314 314 312 314 316 313 314 310 310 310 308 306 307 310 310 310 304 306 299 304 300 297 301 299 299 298 299 299 299 298 298 298 297 296 295 294 296 298 297 291 298 298 298 296 295 295 294 293 293 293 294 293 293
321 320 319 319 318 318 319 320 320 321 323 324 325 325 323 323 323 323 325 327 328 328 328 327 324 324 335 325 309 305 321 321 315 314 315 316 314 311 313 313 313 313 311 311 311 310 309 309 312 310 309 300 299 299 300 300 302 300 298 297 297 298 298 298 298 297 297 297 296 296 295 296 297 298 293 297 297 297 295 294 294 294 292 292 292 292 293 292
320 320 319 319 319 318 318 319 320 320 322 323 324 323 322 323 322 323 324 326 327 328 329 326 323 323 322 318 308 312 316 316 314 313 316 317 316 316 318 313 313 316 310 309 315 317 315 313 312 305 298 306 297 300 299 301 300 298 297 294 296 297 295 297 296 297 297 295 297 297 294 293 293 293 297 297 297 296 294 293 293 292 292 292 291 291 291 291
320 319 319 319 319 318 318 319 320 320 321 323 323 322 322 322 322 323 324 325 326 327 328 325 323 332 324 310 309 320 316 312 314 314 318 315 315 314 317 316 318 316 314 310 312 315 315 310 312 304 308 302 298 294 300 300 298 298 297 294 294 294 292 297 298 297 296 296 297 296 285 289 293 296 298 298 296 295 293 292 292 292 291 291 291 290 291 291
319 318 318 318 318 317 318 319 319 320 321 322 323 324 321 321 322 323 325 326 327 328 327 326 324 330 318 307 314 320 315 315 313 318 315 314 312 321 320 319 318 315 317 313 313 310 313 308 310 305 309 300 297 306 300 299 300 293 297 296 290 289 288 296 297 296 295 297 297 297 286 287 294 297 297 297 296 294 291 291 291 292 291 290 290 290 290 291
318 318 318 318 317 317 317 318 318 320 321 322 323 324 321 320 322 324 326 326 326 327 325 325 329 324 313 308 319 321 323 316 314 316 319 311 310 314 319 311 316 316 309 309 314 313 309 312 310 303 299 303 302 298 295 295 294 295 291 289 294 289 291 295 298 295 292 296 298 295 287 287 291 295 296 296 295 293 291 290 290 290 290 290 289 289 289 291
318 317 317 317 317 317 317 316 317 319 320 321 322 320 319 320 322 323 325 325 325 324 325 336 331 317 308 303 319 327 323 317 311 319 316 318 313 313 314 310 315 313 311 307 309 310 306 311 301 302 299 300 296 293 292 293 293 294 292 289 289 290 290 292 294 296 295 295 296 293 286 290 291 294 295 295 293 292 290 290 289 290 290 289 289 289 289 290
318 317 317 317 317 316 316 316 317 319 319 319 320 319 320 322 322 324 324 326 325 327 333 318 314 313 303 313 313 308 310 318 322 318 315 314 314 312 310 311 309 309 311 308 308 311 306 302 306 302 301 294 295 298 288 287 289 293 292 288 291 288 287 286 293 294 296 293 290 292 288 289 292 293 293 294 293 291 290 289 289 289 288 289 289 289 288 289
318 317 317 317 317 316 316 316 318 319 320 319 319 320 321 325 321 325 329 324 324 328 327 325 320 317 304 314 306 307 315 313 318 314 314 315 311 310 310 304 306 304 306 304 309 303 305 301 301 296 298 297 294 290 287 282 288 289 288 286 287 288 288 287 287 291 294 293 290 289 289 290 291 293 292 292 293 291 289 288 288 288 288 288 288 288 288 288
317 317 317 317 316 315 315 317 318 319 320 320 323 326 326 318 323 326 320 313 320 315 312 311 307 302 303 305 311 312 316 315 315 313 313 311 315 309 309 307 308 302 302 302 300 302 304 300 302 297 294 292 289 291 289 292 291 289 289 288 287 284 287 287 292 292 293 290 289 288 286 289 290 290 291 291 291 289 288 288 288 288 288 288 288 288 287 289
318 317 317 316 315 315 315 317 318 319 320 317 320 322 323 306 315 318 311 307 307 311 308 307 309 308 310 309 312 313 316 316 306 313 313 315 310 308 303 304 307 308 301 299 299 303 303 293 290 289 291 290 291 294 294 293 292 290 291 289 287 288 289 292 293 292 292 289 288 287 288 289 289 289 290 290 290 288 288 287 287 287 287 288 287 288 288 288
317 317 317 315 315 314 316 317 318 318 320 319 321 309 297 300 301 299 301 301 311 315 307 310 309 307 306 309 315 307 304 307 307 309 313 313 308 304 301 303 304 301 301 301 300 299 302 293 294 293 291 291 292 293 293 292 291 290 289 288 287 289 287 292 291 293 292 288 286 288 288 289 289 290 290 290 289 287 287 286 286 286 287 287 287 288 287 288
316 317 317 315 314 314 316 317 317 319 318 323 314 305 305 303 312 312 305 298 311 313 314 311 308 306 309 309 310 310 310 302 306 310 314 309 306 301 301 300 299 296 300 300 299 296 292 291 294 294 294 294 294 294 293 291 291 291 288 287 286 287 291 292 292 292 292 289 286 288 287 287 289 290 290 289 288 287 287 287 286 286 286 286 287 286 287 286
315 317 317 315 313 314 316 316 318 316 317 314 310 309 309 312 314 316 310 303 301 313 311 310 305 306 305 308 310 308 303 302 299 306 303 307 306 302 300 297 297 296 300 298 293 290 288 294 293 294 294 290 291 292 291 291 292 288 288 286 284 290 286 283 291 290 291 288 286 287 286 287 289 289 289 289 287 287 289 289 289 288 286 285 285 286 285 285
315 315 316 314 314 314 315 316 316 319 314 311 310 309 314 315 315 312 310 303 302 307 309 311 308 309 308 305 309 304 301 301 299 300 306 307 298 302 300 297 294 296 295 293 293 290 290 294 294 295 295 292 291 294 292 289 287 291 291 287 287 289 288 287 286 289 290 291 290 287 284 284 287 285 286 286 288 288 288 288 287 287 287 288 288 287 286 285
315 315 315 313 313 314 314 316 315 313 313 317 308 313 313 314 314 312 307 302 303 305 311 313 314 313 308 312 313 303 302 304 303 301 306 305 298 298 297 299 295 294 297 294 292 292 292 293 293 292 295 295 293 291 291 291 286 286 291 290 289 289 287 288 288 287 283 282 288 286 276 278 285 286 285 285 286 285 286 286 285 285 285 285 284 284 285 287
315 315 314 312 313 314 315 318 315 315 317 308 312 313 311 314 312 312 305 296 292 303 304 303 315 306 315 304 313 308 302 297 301 303 307 304 304 298 298 297 296 293 293 293 291 290 291 292 294 294 293 293 292 290 293 291 286 284 286 289 290 288 288 287 286 284 278 276 286 287 276 275 284 284 285 285 286 285 285 284 284 284 285 283 284 285 284 285
315 314 313 313 313 314 317 314 314 317 315 315 310 314 313 309 315 309 302 296 290 303 303 308 308 307 312 307 309 306 294 297 304 303 303 307 298 306 295 295 298 296 293 294 290 287 291 292 290 292 291 290 288 287 292 292 286 282 288 289 288 287 286 285 285 284 281 286 288 287 282 276 276 283 287 286 285 284 283 283 283 284 284 283 283 284 284 284
314 314 313 312 313 312 312 313 316 313 306 313 315 310 313 313 312 310 301 285 282 306 304 301 309 313 310 304 307 298 298 299 296 296 298 304 302 299 296 295 293 293 295 292 284 293 291 292 290 291 290 286 286 290 291 292 286 286 288 289 286 287 286 286 284 281 282 280 277 280 284 276 275 282 287 286 283 281 281 282 282 283 282 283 283 284 284 284
314 313 312 312 311 311 311 313 313 312 311 312 313 312 312 312 309 304 294 282 302 303 310 302 312 309 306 304 300 300 299 300 296 297 303 300 304 298 293 296 292 293 293 292 287 290 292 291 291 291 286 284 289 286 289 291 285 289 288 290 289 288 287 286 281 282 281 276 275 278 282 275 276 282 283 285 283 280 281 282 282 282 282 283 283 284 284 283
313 313 312 312 310 315 317 315 313 311 313 310 311 311 312 308 307 298 290 281 304 295 304 305 305 300 304 298 298 299 297 298 298 297 298 296 301 304 296 296 293 291 290 293 291 291 291 294 295 289 288 291 285 286 290 288 290 290 290 287 287 287 285 285 283 282 277 272 276 280 282 279 272 280 282 281 283 283 281 281 281 282 282 282 283 283 283 283
313 312 311 309 310 312 305 305 309 313 311 312 313 311 309 308 296 288 280 291 300 302 304 302 300 305 299 297 295 296 298 297 297 297 294 296 294 296 295 291 294 288 285 285 285 290 291 292 289 290 294 292 289 288 291 290 291 289 283 282 282 280 281 278 278 280 271 271 277 277 280 282 272 275 281 280 281 282 282 280 280 280 280 282 282 282 282 282
312 311 310 309 311 309 305 311 310 312 311 311 310 308 304 292 298 284 285 299 292 297 297 297 299 299 299 300 296 296 295 299 297 295 293 289 289 290 286 286 288 286 284 282 284 284 283 287 290 291 293 293 289 286 288 288 290 287 283 282 276 273 275 272 274 269 271 271 275 276 278 275 275 281 281 280 281 281 282 281 281 280 280 281 281 282 282 282
311 310 308 308 311 309 314 312 313 311 311 309 309 306 297 290 281 290 290 297 291 301 297 303 299 299 299 297 295 298 296 293 297 294 295 292 289 289 293 291 291 289 284 285 283 284 284 285 288 288 288 292 291 283 283 282 283 284 281 279 276 271 271 269 271 273 272 276 276 276 278 273 277 280 284 281 282 282 282 282 281 281 281 281 282 282 282 282
311 310 308 312 311 312 313 313 313 311 307 308 307 300 294 285 284 299 295 295 296 300 300 300 297 297 295 292 297 295 290 295 295 292 292 289 287 286 288 291 291 290 288 284 280 281 280 281 283 285 283 291 290 288 285 283 281 280 283 279 277 275 271 268 271 267 269 271 274 278 273 269 270 275 282 282 282 282 282 282 282 281 281 281 281 281 281 281
310 308 309 312 310 311 311 312 312 311 309 310 299 292 286 285 287 287 288 292 297 298 296 298 297 295 294 291 295 296 295 291 294 291 288 287 284 285 287 288 291 289 288 282 285 281 282 284 287 287 285 289 288 289 288 286 282 282 282 281 276 275 280 274 273 270 269 270 271 271 271 275 276 281 282 282 282 282 282 282 281 280 281 281 281 281 281 281
308 309 311 310 312 312 311 311 311 310 308 304 293 286 286 289 286 293 292 301 301 297 297 296 295 291 289 290 294 293 296 291 292 288 286 287 289 287 291 290 288 290 287 284 286 281 284 281 283 288 289 282 281 286 288 288 276 279 279 276 278 281 279 275 275 275 272 271 271 272 274 278 281 281 280 281 280 281 281 280 280 280 280 280 281 281 281 281
307 312 308 311 312 312 311 311 311 308 308 299 289 286 292 290 297 297 300 297 299 298 295 288 289 289 289 288 288 290 290 290 288 286 284 288 285 289 289 290 293 290 291 289 285 288 281 284 283 285 284 285 285 285 286 286 287 280 276 279 283 285 281 277 270 271 269 266 269 271 271 274 275 270 279 279 278 279 279 279 279 280 280 279 280 280 280 280
308 308 308 309 314 311 311 311 310 308 306 293 286 291 296 293 299 298 302 298 298 298 292 289 291 295 289 287 289 290 290 288 288 286 284 288 287 292 289 288 292 292 291 290 285 284 285 281 283 283 284 284 285 287 284 285 287 282 280 287 278 273 273 276 271 267 267 268 270 274 274 275 275 275 276 277 277 278 279 279 278 278 278 279 279 279 280 280
308 304 303 309 313 311 310 311 309 304 298 289 286 289 295 296 299 298 301 301 301 297 290 292 289 293 292 287 291 289 289 284 286 285 284 286 285 290 290 290 288 287 288 288 285 282 285 282 282 282 283 284 284 283 277 278 285 285 285 280 284 277 277 273 275 273 274 269 270 271 273 270 278 277 278 279 279 279 278 278 278 278 279 279 279 279 279 280
304 300 301 309 312 311 311 311 306 303 293 286 289 291 299 297 299 300 301 300 297 294 292 291 293 289 293 293 293 288 288 289 288 287 287 288 287 292 290 293 288 286 286 287 284 288 283 285 279 280 282 283 277 280 279 281 277 278 277 277 279 279 280 276 276 272 272 269 269 269 267 272 277 279 280 279 279 279 278 278 279 279 279 279 279 279 279 280
306 300 302 308 310 311 310 307 298 290 288 291 293 295 297 297 301 299 301 301 299 300 296 293 292 290 291 290 291 292 289 288 288 287 287 287 287 285 289 291 289 284 285 284 284 285 283 281 280 279 277 278 280 284 284 284 283 280 279 278 279 276 273 271 270 276 272 272 269 268 268 274 279 281 281 280 280 280 280 279 279 279 279 279 279 279 279 280
301 294 300 308 311 310 304 296 294 296 292 290 291 296 296 304 300 299 298 300 299 295 299 295 294 293 292 292 292 291 289 287 289 287 287 287 290 290 289 293 289 287 285 281 282 285 285 282 281 279 281 281 283 284 285 284 283 282 281 279 281 279 278 273 269 272 272 273 273 273 269 272 280 280 281 281 281 280 280 280 279 279 279 279 279 279 279 280
299 299 303 308 310 307 302 296 297 295 294 296 301 301 303 300 298 299 296 298 295 298 295 293 293 292 293 292 292 289 291 288 290 288 288 287 289 290 291 291 289 287 284 279 283 283 289 281 277 280 282 280 280 282 283 284 282 279 280 281 279 277 278 276 276 276 271 271 268 270 268 272 278 280 280 281 281 280 281 280 279 279 279 279 279 278 279 280
301 301 300 307 310 306 300 292 292 294 295 298 299 298 302 300 298 296 295 296 294 294 292 292 295 295 292 294 290 290 292 286 289 290 288 288 287 284 287 289 289 284 287 283 283 286 281 281 279 276 276 278 275 276 277 279 280 276 277 279 280 281 280 279 277 276 269 272 272 270 265 271 279 280 281 281 281 280 280 279 279 278 278 279 278 279 279 280
302 305 302 302 305 303 294 299 297 295 294 295 295 295 296 298 300 299 297 296 297 295 294 291 294 295 292 293 291 291 292 291 288 288 289 288 287 282 285 288 284 284 284 285 289 288 285 281 279 275 274 274 275 276 274 272 275 277 278 278 280 278 277 275 271 273 269 273 274 270 269 276 278 280 280 280 280 279 280 279 279 279 278 278 278 279 279 280
298 291 298 296 300 298 297 299 296 298 296 295 294 295 297 295 298 299 299 297 298 297 296 296 295 294 291 290 289 289 290 291 289 286 284 284 279 282 282 284 283 282 285 288 287 286 281 281 281 282 281 280 283 277 279 280 276 272 275 276 277 279 279 278 276 272 270 273 272 273 274 274 276 278 279 280 280 280 279 278 278 278 278 278 278 278 279 280
303 294 294 287 296 295 293 297 296 297 295 299 292 296 294 295 297 297 300 294 299 297 296 295 294 290 289 289 289 288 290 288 290 290 290 288 280 279 283 282 282 283 286 286 287 283 279 277 280 280 281 283 284 283 280 280 276 277 275 275 277 277 278 276 273 271 276 271 268 275 276 274 275 277 278 279 279 278 278 277 278 278 278 278 278 278 281 279
293 297 299 299 293 288 289 290 295 294 297 298 295 298 295 295 295 293 297 298 298 298 293 293 294 294 293 291 290 287 287 287 288 287 289 290 280 279 279 281 279 284 284 283 285 282 279 277 281 280 279 281 282 281 281 279 278 277 277 277 276 277 276 274 274 276 276 272 270 275 276 274 276 278 279 279 278 277 278 278 278 279 279 278 278 277 278 278
300 299 300 303 293 295 294 294 296 295 294 297 295 297 294 294 293 296 295 291 294 292 295 289 291 293 293 293 291 289 289 284 285 288 288 286 286 280 278 280 282 281 283 280 281 282 279 277 279 280 278 279 279 280 280 279 278 278 277 277 277 277 276 276 276 277 276 275 276 275 275 275 277 279 280 280 280 280 278 279 279 278 277 277 277 277 277 277
296 296 292 302 300 297 297 296 295 295 292 295 292 294 295 294 293 296 297 294 289 290 294 291 293 293 293 293 292 289 290 290 290 287 288 288 283 283 281 283 279 281 281 279 280 281 280 276 280 278 276 276 278 279 279 278 277 275 276 277 277 277 277 277 276 277 277 276 276 276 275 274 279 281 281 281 281 279 279 278 278 278 277 276 277 277 277 277
303 304 302 298 294 297 298 297 294 293 291 293 292 294 295 295 294 296 296 300 296 292 292 291 294 293 293 292 291 291 294 293 292 292 291 288 287 286 283 282 282 278 279 278 280 277 280 276 279 277 273 274 277 277 277 278 277 275 275 276 276 276 274 276 275 277 275 274 275 275 273 273 279 280 280 279 278 278 277 277 277 278 277 276 276 277 276 276
306 308 307 300 293 297 295 297 296 294 289 293 294 294 294 294 296 297 293 299 299 300 298 295 294 292 291 291 290 292 295 295 292 287 288 289 289 287 289 286 285 281 278 278 281 277 279 276 274 275 272 273 275 277 274 274 273 271 273 275 276 277 278 278 278 279 278 278 274 272 273 278 279 279 277 277 277 277 276 277 277 276 276 276 276 276 275 275
Wind_Speed
20 21 19 19 18 18 18 17 17 17 16 16 16 16 16 16 15 13 12 12 12 11 10 10 9 9 9 9 8 8 9 3 5 4 11 1 3 8 11 10 11 12 12 6 8 4 3 6 5 3 2 3 2 1 1 1 0 1 1 1 4 2 5 3 3 3 1 3 6 7 5 4 3 3 2 5 4 1 7 7 8 18 13 10 7 8 8 8
20 20 20 19 19 19 18 17 17 16 15 15 15 15 17 17 15 13 12 13 11 10 9 9 9 9 9 9 8 7 5 3 4 10 7 2 5 7 9 10 10 9 11 4 5 6 5 7 6 4 4 2 1 1 1 1 0 1 2 2 0 2 0 3 2 4 5 4 5 5 5 5 3 3 3 3 8 3 5 6 7 13 12 12 11 9 10 9
21 20 20 20 20 20 18 17 17 15 15 14 14 15 16 17 16 13 13 13 11 10 9 8 8 8 9 8 9 4 2 2 3 8 4 2 7 8 9 10 10 9 4 4 4 4 3 4 4 5 3 3 3 1 2 1 1 0 1 2 1 1 1 3 3 5 4 6 6 6 5 4 4 2 2 1 4 5 8 4 6 9 10 10 8 9 8 10
21 20 20 20 20 20 20 19 17 15 15 14 13 15 14 18 16 15 15 12 11 10 8 8 8 7 8 8 4 3 1 3 1 3 5 8 10 10 9 10 10 9 6 6 5 4 3 5 5 3 2 4 2 1 2 0 0 1 1 1 1 1 1 1 3 4 4 7 4 3 4 2 5 2 1 3 5 5 6 9 9 9 8 9 8 7 7 9
21 21 21 20 20 20 21 20 19 17 16 16 14 12 15 17 16 16 15 13 12 10 9 8 8 8 7 7 5 2 1 3 2 1 4 10 10 10 10 10 10 6 6 7 9 8 7 6 3 2 1 3 2 4 2 1 2 1 1 4 2 1 0 2 3 5 4 5 3 4 3 4 5 1 2 5 8 3 4 8 10 10 9 8 9 6 7 9
21 21 21 20 21 21 21 20 20 19 17 16 14 11 14 18 16 16 15 14 12 11 8 8 7 7 7 5 1 1 1 0 2 3 7 12 10 10 9 10 11 6 6 8 4 6 4 5 5 0 2 2 1 1 2 2 1 2 2 4 4 1 1 0 2 3 5 2 3 3 4 3 2 2 5 7 6 6 10 10 10 9 9 9 7 7 9 9
21 21 20 20 21 22 21 21 20 21 19 17 16 16 11 14 17 16 15 13 11 10 9 8 6 6 5 1 1 1 1 3 2 3 10 11 11 10 11 10 8 5 7 5 7 5 6 5 5 4 3 3 2 1 3 0 3 2 0 3 3 2 1 1 3 5 1 1 2 3 4 3 4 3 2 7 9 11 10 11 9 9 8 8 10 9 9 8
21 19 19 19 20 21 21 21 21 21 20 18 16 14 12 16 17 16 15 13 10 9 9 7 6 4 1 1 1 2 2 1 5 4 9 10 9 10 11 5 4 7 4 4 5 6 5 4 5 5 2 2 1 2 2 3 4 3 1 1 3 1 1 0 2 1 1 1 2 5 5 3 3 4 4 9 10 10 10 9 9 9 8 7 9 9 7 8
19 19 19 20 20 18 20 20 21 21 21 19 20 16 14 15 16 16 15 13 10 8 7 7 6 4 2 1 2 3 2 0 1 5 8 7 8 9 6 6 10 6 4 3 4 5 5 4 3 5 2 4 3 4 2 2 2 2 1 0 1 2 3 3 2 2 0 0 3 4 4 2 1 6 5 9 11 10 10 9 8 8 7 8 9 8 8 8
20 20 19 19 20 20 20 20 20 21 20 20 19 16 12 15 15 16 15 13 11 8 6 6 5 2 1 1 3 4 1 5 1 3 6 6 7 7 8 5 9 7 6 3 3 7 4 2 2 3 1 4 3 3 1 1 1 0 2 1 2 3 4 3 4 2 2 1 4 4 3 2 4 5 3 9 11 10 9 9 7 7 9 9 8 6 6 8
20 20 20 19 20 20 21 21 21 21 21 20 20 17 17 15 14 16 13 11 11 8 6 5 5 1 2 3 4 2 2 1 1 3 4 6 5 6 5 7 6 6 7 3 4 3 4 3 3 2 0 1 1 3 3 1 1 4 3 3 5 4 3 4 4 3 1 1 4 4 4 4 4 1 5 11 10 10 11 8 7 6 7 8 8 7 5 5
20 19 19 20 19 20 21 21 21 21 21 20 19 20 20 15 15 15 13 12 12 9 7 5 3 2 3 6 1 1 2 1 1 2 3 4 3 1 2 4 3 4 5 5 3 3 3 3 4 1 0 0 1 3 3 1 1 2 2 4 5 5 4 4 4 3 4 2 2 4 4 3 5 5 11 13 10 10 10 8 7 7 7 6 7 5 4 4
19 18 19 19 20 20 21 21 21 21 21 20 20 24 23 17 14 14 11 12 8 8 8 7 6 2 1 3 1 3 1 1 1 2 3 2 1 1 1 0 1 1 3 3 3 1 2 1 2 4 3 2 3 2 0 1 3 3 1 2 6 5 4 7 4 5 5 1 2 4 4 2 8 6 13 13 11 10 9 7 6 6 6 5 5 5 4 4
18 17 17 19 20 20 20 20 22 22 21 22 21 18 22 18 13 12 10 9 13 8 7 7 3 2 2 0 1 2 1 1 2 1 4 5 6 1 2 2 2 1 0 3 1 2 1 1 1 4 3 1 1 2 1 0 0 2 1 2 3 4 4 7 3 6 6 3 3 1 1 7 4 7 13 10 10 10 8 7 6 5 5 5 4 4 4 4
18 17 17 18 19 19 20 21 22 22 23 21 21 20 25 18 14 11 9 8 7 5 8 6 2 1 2 1 2 2 4 2 1 3 2 5 6 2 1 5 2 1 1 1 0 0 0 1 2 1 2 4 4 3 3 4 2 3 2 3 2 2 1 5 1 5 3 2 5 1 3 1 4 8 11 7 8 9 10 7 6 5 5 4 4 4 3 4
17 17 17 18 18 20 20 21 21 22 22 22 21 26 25 16 10 8 7 8 10 9 4 0 2 1 4 2 1 4 1 0 2 2 1 3 2 1 4 5 2 3 1 2 1 0 2 1 3 1 2 1 1 3 6 1 2 3 2 2 3 2 2 2 3 3 2 1 2 2 3 4 0 6 8 6 8 8 10 7 5 7 5 4 4 3 2 3
15 16 17 17 18 20 20 20 21 21 22 23 26 26 22 14 6 6 8 3 4 2 1 2 3 0 4 0 2 2 2 2 1 0 4 2 1 2 3 3 1 2 4 3 2 0 2 3 2 0 1 2 3 2 4 3 1 2 3 2 3 3 2 3 4 3 4 2 1 2 2 3 1 9 6 6 7 9 8 7 6 5 4 5 4 3 3 4
14 16 16 18 19 19 19 19 20 21 21 25 24 22 18 17 2 5 4 3 2 1 1 0 1 2 1 2 1 2 0 2 3 4 4 1 2 2 1 1 2 4 5 3 2 2 3 1 4 1 1 3 3 3 4 3 1 3 6 4 4 4 5 7 7 3 2 2 1 4 5 6 3 9 6 6 7 8 8 7 7 5 5 4 4 3 4 4
13 14 16 18 18 19 19 19 20 21 20 24 23 21 6 5 2 2 1 6 1 1 1 1 2 2 2 2 2 3 2 1 3 2 2 3 1 2 2 3 1 3 3 2 2 2 0 2 2 1 2 3 4 4 1 2 3 3 3 3 4 5 5 6 1 0 1 1 3 3 5 5 5 5 5 6 6 7 7 6 5 5 4 4 4 4 2 3
14 15 15 17 18 19 19 19 20 21 17 15 12 8 2 7 2 1 5 8 2 1 1 7 3 5 3 0 3 3 3 3 1 3 1 0 3 3 3 2 2 0 1 2 6 1 0 3 4 3 3 3 3 1 1 3 2 3 3 4 6 7 7 7 3 3 2 2 3 3 6 10 7 4 11 7 6 7 7 6 4 4 4 4 5 3 2 2
12 16 16 16 17 18 18 19 19 20 17 7 10 4 5 4 3 4 7 8 1 1 1 2 1 2 3 1 1 5 2 1 2 1 1 2 3 2 1 2 1 2 1 6 6 1 1 4 2 3 3 2 1 1 1 2 3 3 4 4 7 6 7 2 4 5 4 2 3 4 12 12 7 5 11 7 7 8 7 6 5 5 4 4 4 1 2 0
12 14 15 14 16 18 18 19 20 15 19 6 5 5 3 4 1 1 0 6 1 1 1 2 1 3 2 1 2 1 2 2 2 2 0 5 0 2 3 4 3 4 6 6 2 2 5 5 1 1 0 1 0 1 2 3 3 4 5 6 5 6 2 5 1 2 1 3 6 7 10 8 7 3 11 10 7 5 5 5 5 5 5 3 3 3 1 3
11 14 15 14 16 17 17 19 15 16 6 5 4 3 3 2 2 0 0 3 8 1 2 1 3 5 2 1 0 1 2 1 1 2 4 5 1 2 2 2 3 5 7 3 4 4 6 1 2 1 0 1 2 4 3 4 5 6 6 5 5 1 2 4 1 2 4 2 6 5 9 8 5 6 7 5 5 4 5 6 4 5 4 4 3 3 1 2
11 12 14 15 15 17 17 17 17 6 4 5 5 3 2 1 2 1 1 2 6 1 2 1 2 1 2 0 1 1 2 1 2 2 3 2 2 1 0 1 4 3 3 4 2 3 8 8 2 1 0 0 2 3 4 4 5 2 4 6 6 1 0 2 4 8 8 11 3 6 9 7 6 8 5 5 6 7 6 6 5 4 3 5 3 2 4 2
10 12 13 14 16 17 17 14 2 2 2 1 4 1 1 2 2 2 0 4 2 2 2 1 1 0 1 1 0 1 1 1 3 1 2 2 1 2 1 1 1 2 3 2 4 6 7 1 1 0 0 0 1 3 2 1 5 3 1 2 2 1 3 3 5 7 4 5 1 2 6 3 8 9 8 7 6 7 8 8 7 4 4 3 3 3 4 1
10 11 12 13 16 19 16 3 2 2 1 2 2 2 1 2 2 2 0 1 4 1 2 2 0 2 1 2 2 1 0 2 1 1 1 1 0 0 2 1 2 5 2 2 3 3 3 1 1 0 0 2 2 4 2 3 3 1 2 0 2 2 2 4 5 2 4 2 2 4 1 10 4 6 9 8 8 8 6 5 5 5 5 3 3 3 2 1
9 11 10 12 15 18 3 1 1 1 2 1 1 1 0 2 0 0 1 1 3 3 3 1 1 1 1 0 0 0 1 1 1 1 1 1 1 2 0 3 1 1 2 1 2 3 1 2 1 1 1 2 2 4 0 1 2 4 1 2 0 3 4 5 5 5 8 5 6 6 6 9 9 7 8 12 10 8 7 5 6 6 3 4 3 1 2 2
9 10 9 11 13 9 2 5 2 1 2 2 1 2 0 1 1 2 1 3 2 1 2 2 0 1 1 1 1 2 1 3 1 1 2 1 0 1 2 5 3 3 1 2 6 0 1 2 2 2 1 1 4 1 1 1 2 2 1 1 3 3 6 7 6 7 7 6 7 5 6 4 5 4 8 13 10 9 8 8 6 5 4 4 2 2 1 1
9 9 8 10 15 13 4 3 3 2 2 1 0 1 1 2 1 1 1 1 0 1 3 2 3 0 1 1 2 3 2 3 1 1 0 1 2 0 2 0 2 4 3 4 8 3 1 1 2 2 2 4 3 1 1 2 1 1 2 3 5 5 6 6 5 7 6 2 12 3 4 5 10 3 6 6 6 10 9 9 7 4 5 1 2 0 1 2
8 7 7 10 11 2 1 3 1 2 1 3 1 2 0 3 1 1 0 5 2 1 0 0 1 2 2 2 2 5 3 2 1 2 2 1 2 1 0 1 2 2 4 4 8 6 1 2 3 3 4 1 2 1 1 0 1 3 2 4 4 4 7 5 5 5 3 7 10 6 11 8 6 5 9 10 6 8 7 5 5 5 3 2 1 0 2 3
7 6 5 8 3 3 3 2 3 1 3 1 1 2 2 0 1 1 4 3 3 1 2 1 1 0 2 3 1 2 1 2 2 3 2 1 1 1 1 2 2 2 2 3 5 5 2 2 0 2 4 1 3 0 3 1 1 1 1 1 5 7 5 3 3 3 1 6 1 6 1 5 7 3 3 1 3 8 9 9 7 3 3 1 0 2 4 4
6 4 3 3 1 2 3 1 3 2 1 1 2 1 1 1 2 5 4 3 2 2 2 2 1 1 2 2 0 2 1 1 3 3 3 1 1 3 3 4 1 5 3 3 3 3 2 7 1 3 4 2 1 1 2 1 1 1 1 3 2 5 4 3 4 3 5 9 1 4 6 7 9 7 3 7 6 6 6 7 6 3 1 2 4 2 3 4
4 2 1 3 1 3 1 3 3 2 2 1 0 1 1 2 4 6 5 2 3 1 2 2 1 2 2 1 3 2 4 4 2 2 3 0 1 5 2 3 2 5 7 1 5 5 4 2 2 3 2 3 2 3 1 2 3 2 2 2 0 3 2 7 4 3 4 0 2 5 4 6 6 8 8 10 7 7 9 8 4 5 2 2 1 2 4 4
4 2 3 3 2 2 1 1 2 3 3 1 0 2 2 3 5 1 5 5 2 0 4 1 1 2 1 4 1 4 3 4 5 2 1 1 2 2 2 2 4 1 2 4 1 1 5 3 4 4 2 3 3 2 1 1 1 3 1 2 3 2 2 6 1 4 5 5 4 2 7 5 3 3 2 12 9 8 7 7 6 4 3 2 1 3 2 3
3 3 5 3 3 5 3 3 2 3 2 1 2 5 5 8 4 4 4 3 1 2 2 2 1 2 4 3 4 2 3 3 1 3 2 4 5 3 3 4 4 3 1 1 3 0 7 8 0 2 1 2 5 1 1 1 2 2 1 4 2 5 0 8 1 1 4 7 9 4 6 2 2 2 5 9 8 7 6 7 4 3 4 3 3 2 3 3
2 3 4 3 3 4 6 4 3 2 2 1 3 6 12 7 3 4 4 1 2 1 3 2 1 2 5 4 1 5 7 4 1 2 2 6 5 4 4 3 5 10 7 7 1 2 1 6 1 2 2 1 1 2 1 1 2 1 3 2 3 0 1 3 4 1 1 1 14 2 7 4 3 0 4 5 5 7 6 5 5 2 3 3 1 1 1 2
2 1 3 4 4 7 7 6 5 4 1 3 6 11 8 5 9 5 2 3 1 2 2 3 3 6 2 2 3 4 2 2 2 2 3 2 4 8 3 1 3 6 6 4 4 1 3 7 1 2 3 0 1 2 3 1 0 3 2 2 2 2 3 2 4 3 1 6 9 6 9 9 5 6 4 5 5 4 3 4 3 2 1 1 1 1 2 4
3 3 4 6 4 9 7 7 6 2 1 4 10 13 3 9 6 10 2 3 1 1 1 4 4 9 3 3 3 5 3 4 2 4 4 4 4 5 6 2 1 3 4 2 4 3 5 9 3 3 2 1 2 1 4 2 1 2 1 1 2 1 1 1 6 3 2 8 8 6 5 8 9 7 6 7 7 6 3 2 1 3 2 1 1 2 2 4
1 0 4 4 7 9 8 7 4 3 2 6 9 10 7 13 6 5 5 4 2 3 3 5 4 3 5 4 0 3 6 4 4 6 1 3 4 3 6 6 2 2 4 6 2 1 2 4 3 1 1 1 1 3 5 1 0 2 1 2 0 1 3 4 5 3 1 11 5 14 5 8 5 4 14 10 7 4 1 1 1 1 1 1 2 3 4 5
3 2 5 4 5 7 9 6 3 2 4 14 11 12 1 4 7 13 6 7 3 4 5 2 6 6 5 5 3 3 5 5 6 5 6 2 4 3 5 6 6 2 5 3 2 1 3 4 9 2 4 2 2 6 6 8 6 2 3 4 0 2 1 2 2 4 4 4 5 11 16 2 1 2 7 6 5 4 4 1 0 1 0 1 1 3 4 5
2 2 1 3 7 7 7 4 4 9 10 7 7 10 9 9 3 5 8 10 4 6 6 4 4 7 4 3 8 5 3 5 5 6 4 3 5 5 5 7 6 5 3 4 1 1 1 3 11 2 1 7 3 1 4 1 4 8 9 11 11 7 4 4 10 4 3 5 6 4 17 10 1 2 5 5 4 5 2 0 2 1 1 1 2 3 4 6
4 6 3 8 8 9 7 8 6 4 5 12 14 8 6 5 7 4 4 5 9 5 4 6 7 6 6 8 5 2 1 3 6 4 4 8 4 9 1 7 9 12 10 6 6 2 4 1 1 11 8 8 3 2 1 0 0 2 3 7 8 8 5 5 10 6 1 6 2 8 8 17 9 4 3 4 5 4 1 3 2 0 1 1 1 3 4 5
6 5 4 7 7 9 6 8 6 8 12 11 5 10 10 4 5 5 6 4 4 3 2 4 7 5 10 7 4 4 4 6 7 7 3 4 6 5 1 8 10 7 4 0 3 3 3 2 2 11 3 1 1 1 0 2 1 3 5 3 4 11 11 9 8 1 4 2 2 4 8 9 2 1 3 4 4 5 5 4 0 1 2 1 2 4 5 5
3 4 2 3 6 6 7 11 11 14 12 6 10 13 10 10 6 6 8 8 7 3 7 5 2 13 6 5 5 7 6 4 6 9 7 6 5 1 5 7 13 7 8 5 7 6 3 3 6 4 6 4 1 1 2 1 1 5 5 7 5 1 2 1 1 3 4 14 11 7 14 15 3 3 3 5 5 7 5 2 3 3 2 2 3 4 4 6
1 0 2 4 5 7 11 8 11 11 11 12 11 16 13 8 9 12 11 9 7 7 2 6 10 3 5 4 6 6 7 15 7 4 5 5 4 1 5 1 4 4 3 3 3 4 5 3 7 5 11 12 11 8 5 6 9 6 3 4 5 9 7 2 7 4 8 11 13 13 15 17 4 6 7 5 5 4 5 3 2 3 2 3 4 5 5 8
7 7 4 3 5 6 7 2 4 8 10 11 14 17 13 14 8 11 11 11 10 10 13 6 1 6 6 5 6 8 11 6 9 2 2 1 0 0 1 4 5 2 3 5 4 1 2 1 7 11 13 15 14 1 1 4 2 6 4 10 11 8 11 11 5 6 18 9 11 18 17 17 18 14 12 10 7 10 6 2 2 2 2 3 3 4 5 8
2 9 7 5 4 8 8 7 7 8 13 11 11 5 14 18 9 4 15 8 13 13 9 12 6 4 4 6 10 10 12 5 9 11 14 7 1 1 2 5 3 4 2 1 3 4 2 2 13 13 20 19 12 6 1 7 6 7 7 9 11 14 12 14 14 21 3 2 18 19 12 14 22 14 12 10 7 4 4 3 1 2 2 2 2 3 7 9
10 7 7 9 8 8 12 11 14 10 13 8 16 8 13 12 9 10 6 15 5 10 9 5 13 17 12 13 6 7 6 8 9 13 9 8 2 2 2 2 2 2 3 1 2 3 5 8 10 10 21 18 12 11 3 3 6 6 9 7 11 13 12 17 22 20 10 13 23 17 8 14 16 10 11 4 3 3 5 0 1 0 2 2 4 6 8 9
6 3 4 10 12 9 16 14 18 19 18 19 12 15 18 13 15 12 5 2 6 6 15 10 13 16 17 15 10 14 11 4 8 10 9 6 11 4 3 1 3 2 2 3 1 1 4 10 5 6 13 12 9 10 10 13 12 12 13 9 12 13 18 21 21 18 18 22 21 20 20 24 19 16 15 10 4 6 2 1 0 1 2 3 5 7 9 8
12 11 3 7 10 8 6 9 11 16 16 19 16 20 13 16 24 15 6 7 7 7 5 14 22 11 15 17 17 18 19 16 15 13 6 10 2 5 5 6 5 2 3 5 5 3 8 5 6 7 9 14 9 6 8 9 10 16 14 10 15 16 18 21 18 19 17 21 25 26 24 25 20 14 11 8 7 2 0 0 0 1 1 4 5 7 9 7
7 8 3 3 9 11 11 8 10 14 13 16 17 20 12 21 26 17 14 13 17 10 11 25 24 11 10 15 19 25 23 14 13 19 8 13 14 9 9 4 14 8 8 5 4 4 8 4 4 1 2 7 4 10 9 9 11 17 19 21 18 18 22 21 20 18 13 21 22 18 17 18 19 2 2 4 2 0 1 0 1 1 2 3 6 7 6 6
9 3 8 6 10 10 14 12 10 7 16 20 17 18 16 24 24 13 13 14 19 20 20 16 14 10 12 15 22 25 19 13 8 1 0 0 2 4 6 6 15 13 9 10 6 7 8 5 4 3 3 6 3 4 3 5 9 15 25 23 20 23 22 18 17 15 19 19 16 17 20 16 9 2 4 4 1 1 2 1 1 3 4 3 5 5 4 7
Wind_Direction
355 352 349 348 348 348 347 345 344 342 341 341 341 336 336 336 331 323 317 319 316 319 322 323 331 326 318 320 326 341 343 288 83 52 61 116 296 295 293 298 296 298 308 296 285 318 308 214 250 15 265 155 197 133 234 116 343 260 208 264 298 348 69 323 2 9 13 329 12 5 18 30 29 30 21 327 216 217 77 56 63 76 67 66 66 52 50 47
353 350 349 347 346 346 345 346 344 341 340 339 338 337 337 334 331 325 321 325 321 316 323 328 329 323 325 319 331 353 340 288 88 74 69 26 298 299 300 297 304 307 316 306 14 344 349 356 348 311 294 232 211 97 219 195 178 238 301 268 154 356 139 316 349 338 7 4 354 9 3 3 50 28 14 1 63 75 59 52 45 78 68 58 48 50 46 43
352 349 348 346 346 345 344 346 342 341 341 339 336 337 336 336 333 326 326 325 324 328 326 328 329 323 318 329 325 334 317 282 259 42 55 7 337 327 317 308 311 313 321 317 313 338 313 324 308 305 296 329 193 151 243 130 250 336 72 308 50 39 63 8 19 330 353 6 358 358 348 322 44 20 300 33 81 72 58 30 56 62 66 63 58 46 46 43
351 349 347 346 345 344 344 343 340 340 341 340 337 339 338 340 335 332 333 323 324 329 330 328 325 325 322 318 336 304 263 301 74 40 36 355 345 326 317 315 311 311 302 268 282 300 304 262 262 274 312 257 112 120 189 177 285 27 204 263 129 7 240 30 336 331 360 28 350 318 298 332 16 345 291 315 135 63 60 60 77 71 70 71 62 50 44 46
350 348 346 344 344 344 344 340 338 342 342 340 336 331 341 338 336 335 332 329 325 329 334 328 328 335 333 327 305 227 14 273 59 29 347 350 335 322 321 309 305 297 286 287 288 248 247 277 252 250 161 298 154 173 100 128 37 34 272 109 113 328 165 34 326 332 20 4 318 314 336 21 309 285 46 48 87 78 71 84 78 84 75 73 63 55 47 42
350 347 345 343 343 344 343 340 339 339 337 340 338 332 333 340 337 335 332 328 325 331 326 334 334 339 350 25 272 233 315 244 345 351 327 340 331 320 307 306 303 281 274 277 306 322 342 320 313 288 321 289 46 359 125 94 201 290 147 81 67 35 336 61 302 359 42 359 321 328 7 325 301 95 74 76 88 94 87 87 85 82 88 83 77 63 50 42
350 346 342 342 342 343 342 341 339 337 339 339 338 341 327 335 335 334 328 327 324 321 332 331 342 347 12 79 216 310 167 102 45 307 359 338 328 311 303 301 304 295 295 2 2 351 4 314 343 25 327 262 149 317 85 93 159 249 206 142 92 339 359 78 285 359 359 311 317 334 297 280 276 139 113 92 95 88 85 86 88 88 83 80 76 62 58 49
349 345 343 341 341 340 339 340 339 338 335 335 336 338 333 339 334 331 326 322 320 316 324 329 339 353 65 239 205 206 91 33 2 19 349 350 327 326 315 296 313 317 329 20 3 351 340 358 3 336 226 323 39 305 75 333 190 219 160 35 128 282 149 269 288 291 285 267 343 328 304 263 197 129 120 105 100 99 97 102 98 94 82 74 74 69 57 49
348 345 342 342 341 338 336 337 337 334 334 334 336 336 333 337 334 329 323 317 321 316 322 326 336 7 166 347 268 286 120 3 286 2 4 346 333 309 330 12 345 341 325 25 8 344 307 34 3 57 349 345 37 311 10 36 201 225 43 268 182 188 163 182 233 212 269 63 348 340 328 70 111 113 98 117 109 111 115 105 102 97 92 78 65 63 59 50
347 345 340 340 341 338 338 337 334 333 332 331 330 329 330 334 333 326 320 312 315 318 316 318 336 345 169 264 286 262 187 263 325 13 9 345 333 354 30 359 0 348 355 9 21 6 30 344 23 351 336 263 266 268 359 168 234 221 287 281 259 249 149 184 216 177 116 358 348 328 324 298 156 159 133 120 121 122 111 107 109 103 95 86 77 59 61 56
347 344 340 339 339 339 339 337 334 332 330 328 326 323 332 335 334 325 316 303 308 309 312 303 347 303 281 241 267 292 219 259 344 14 359 5 11 21 4 356 358 7 350 349 67 17 358 331 12 311 77 345 359 240 182 248 355 260 328 299 239 243 156 168 228 155 196 219 339 299 290 291 181 176 144 136 127 125 116 114 107 99 92 91 84 76 61 65
347 343 340 338 338 338 337 336 333 331 329 324 323 324 328 332 333 323 314 305 302 304 304 306 308 268 252 248 46 67 216 63 45 18 317 62 24 342 294 355 348 13 359 342 62 19 31 352 326 313 317 68 261 322 170 46 276 300 332 304 171 173 158 198 190 193 179 212 326 294 277 227 159 196 128 130 131 123 118 117 113 101 96 94 92 87 74 60
345 341 338 337 336 336 336 335 334 329 326 322 320 323 321 326 329 317 309 305 302 312 306 322 334 229 333 256 68 97 280 313 74 303 320 19 168 248 297 306 314 325 19 326 14 9 24 328 305 267 313 318 295 300 127 336 256 271 231 250 129 172 195 192 193 174 201 187 300 331 355 132 203 155 126 134 134 132 124 121 108 96 90 81 85 86 76 58
343 337 335 336 336 335 335 334 332 330 324 322 319 310 317 322 324 306 297 277 294 294 300 315 336 289 266 63 159 164 216 338 223 313 18 324 6 56 216 188 196 2 99 331 66 46 323 6 340 269 337 240 237 102 223 211 169 239 173 172 219 147 215 181 216 156 220 167 209 281 259 287 104 146 120 140 141 130 112 110 107 105 100 101 91 77 73 52
340 335 333 335 335 335 336 334 331 328 325 319 315 310 312 321 317 299 284 294 293 294 300 309 221 296 220 61 150 87 58 354 69 52 28 15 16 333 195 353 332 97 308 292 316 200 25 263 283 249 243 199 281 311 263 185 215 247 55 279 264 19 87 158 9 154 215 185 168 321 239 322 358 121 134 135 129 124 120 117 114 110 106 98 84 81 53 55
336 333 332 333 334 337 336 333 329 325 323 319 316 313 307 316 310 286 265 250 288 300 283 288 190 103 290 196 120 123 167 77 27 106 164 90 32 306 303 291 289 293 185 225 247 133 223 201 246 314 336 95 204 239 286 329 183 267 193 320 322 23 291 173 226 137 341 304 242 102 240 306 125 139 119 132 124 119 117 122 126 114 103 96 98 78 42 55
335 331 330 331 334 337 335 332 328 324 324 321 319 308 310 311 290 269 261 280 290 231 299 340 341 44 287 72 312 237 85 73 176 77 357 132 185 280 323 310 260 277 178 217 205 156 203 209 169 358 173 263 254 8 357 332 344 171 72 327 316 273 329 314 146 286 173 111 271 302 247 229 237 136 133 132 133 125 126 132 124 118 118 108 89 72 58 43
332 331 329 330 334 336 333 330 327 323 322 321 315 298 300 309 183 358 267 224 271 273 318 34 175 332 181 321 330 48 288 305 16 305 263 176 154 296 9 302 303 337 288 259 180 270 152 207 135 287 228 225 70 12 61 304 84 311 333 344 300 333 300 276 282 170 252 137 302 309 271 257 234 140 146 157 137 135 135 137 137 129 120 112 96 72 62 29
330 329 328 332 332 335 332 328 327 324 321 316 304 297 280 102 135 291 3 345 256 296 335 125 8 233 287 28 135 349 9 155 256 323 34 15 318 261 230 237 247 311 305 254 159 247 137 299 223 283 315 59 25 52 304 316 345 295 316 296 300 278 278 280 284 145 276 253 302 266 256 253 268 150 158 148 148 135 131 129 130 130 117 101 86 81 49 43
334 328 328 332 332 333 332 329 326 325 323 330 333 329 346 360 16 163 356 15 74 280 15 297 259 272 253 218 354 319 153 358 256 208 97 87 336 336 273 210 216 171 271 348 306 340 37 353 319 290 38 41 30 20 343 315 329 306 267 241 241 252 266 265 283 121 100 342 236 270 283 271 256 229 161 161 142 131 140 143 142 125 108 97 99 81 44 44
327 333 331 331 331 332 330 329 327 323 320 313 301 355 37 340 337 332 330 274 318 67 285 307 15 283 308 358 351 3 316 179 269 107 354 241 219 331 65 317 281 297 4 332 304 157 70 317 317 53 38 27 335 13 290 270 243 245 253 250 259 244 260 305 291 155 116 126 260 271 262 254 249 255 158 150 157 158 153 146 138 122 117 122 104 81 89 297
320 329 331 329 331 331 329 326 324 318 314 285 8 52 81 84 60 309 328 307 316 227 220 226 30 252 191 194 107 301 255 247 171 39 209 1 182 324 7 349 329 327 318 299 319 15 346 290 89 77 231 298 205 218 216 217 250 247 241 247 263 270 303 273 119 71 336 20 263 255 262 267 275 215 160 160 168 149 134 131 127 122 123 117 118 110 112 33
315 324 332 331 330 328 329 321 319 317 327 12 32 51 66 58 348 302 283 258 269 169 202 216 198 211 147 106 96 214 262 246 103 36 338 332 300 83 320 323 355 298 301 9 21 341 326 172 113 66 25 54 264 208 226 251 232 233 242 246 231 230 95 286 237 55 321 336 285 284 284 276 277 139 152 159 128 113 109 116 114 124 120 106 102 135 101 31
307 316 329 332 328 328 322 323 307 298 41 71 60 67 70 13 353 320 263 254 309 136 254 142 328 317 115 221 133 263 284 52 266 100 347 350 17 161 268 41 306 296 319 55 10 289 259 290 96 332 137 38 301 315 282 265 270 264 282 270 265 307 6 201 289 325 304 275 264 287 281 260 162 164 162 132 118 136 144 130 137 129 113 150 155 90 80 27
306 312 329 331 327 325 322 316 341 38 257 178 82 106 21 43 333 8 69 283 223 238 333 288 220 166 87 142 166 264 51 123 54 81 12 15 339 298 107 2 253 264 329 61 310 286 272 104 284 131 246 242 320 291 277 82 297 281 130 79 88 48 305 311 309 308 324 292 218 4 328 243 165 178 170 141 150 171 162 160 160 140 138 139 93 67 55 9
305 307 329 334 330 326 316 312 78 332 317 45 53 100 21 82 314 338 7 275 290 110 335 169 192 215 30 164 159 265 105 220 343 34 53 84 247 99 325 215 130 293 9 351 284 242 266 171 78 337 99 323 278 249 257 124 259 343 246 333 71 316 269 270 274 335 285 232 218 83 197 292 145 191 187 173 175 178 174 166 144 138 145 119 94 75 74 329
300 305 328 336 333 335 312 59 283 296 255 123 119 85 33 52 305 278 352 200 271 161 146 325 38 231 50 77 346 70 254 225 151 178 162 318 77 195 251 267 255 171 118 282 18 275 161 148 103 222 198 242 286 274 48 8 62 264 181 215 91 258 254 252 257 221 249 269 269 252 184 256 270 227 186 172 175 177 170 171 141 147 147 83 97 71 68 317
294 304 329 335 325 344 326 309 286 268 64 70 41 63 293 139 106 245 93 328 261 130 133 190 182 10 329 178 126 276 49 116 320 152 4 137 56 155 143 280 277 286 326 96 277 212 167 185 194 216 184 192 243 185 175 216 163 234 224 73 246 255 256 251 243 244 248 283 278 184 217 262 251 246 156 159 174 178 190 160 158 149 108 114 101 79 328 278
285 302 332 332 316 298 266 269 312 336 90 56 83 282 77 226 251 20 26 266 128 111 308 82 314 209 145 119 225 226 219 161 230 86 166 356 254 358 263 131 17 292 234 194 247 264 32 125 135 127 109 243 156 205 135 120 251 134 303 275 249 244 247 240 229 255 265 243 268 202 180 226 267 161 133 177 183 182 186 158 141 117 111 135 110 244 280 303
274 298 336 338 317 245 213 213 61 71 84 48 12 274 119 223 237 61 109 260 54 257 41 137 208 143 181 241 209 160 196 188 35 119 215 243 91 279 321 86 290 260 265 247 240 253 155 82 45 152 216 191 146 161 189 201 257 341 311 284 280 248 238 219 220 232 299 249 265 236 210 198 287 177 181 174 212 175 147 139 126 123 142 113 139 188 308 346
263 296 343 335 327 7 328 228 89 147 62 230 211 224 235 261 195 211 220 232 29 169 52 177 136 244 215 219 231 118 283 180 176 177 199 58 197 215 246 338 92 334 281 287 265 261 194 134 7 272 27 151 103 249 191 191 224 77 327 320 321 294 248 236 236 122 154 262 165 356 81 212 211 310 79 119 86 111 143 146 123 147 121 179 127 11 351 355
247 285 353 339 18 300 281 50 108 96 145 49 236 242 261 318 222 175 237 100 334 201 158 148 7 211 113 61 74 205 225 233 166 178 209 150 192 170 198 202 88 331 263 214 278 48 269 226 193 77 303 137 144 2 229 166 220 154 280 289 330 294 6 313 60 321 204 241 247 59 39 335 255 230 130 174 131 127 117 120 133 135 114 58 36 358 345 21
238 250 321 245 276 244 97 86 126 114 112 243 262 233 206 169 250 194 261 100 265 78 210 28 106 147 139 61 253 223 75 220 147 200 97 154 146 271 234 191 155 171 269 17 334 320 268 17 69 147 36 230 176 138 210 329 203 214 195 191 120 337 321 272 243 244 259 351 227 107 14 257 248 268 223 161 142 123 118 128 129 112 101 79 41 18 20 6
213 178 281 132 210 303 41 108 114 153 150 198 231 175 208 216 236 102 222 215 240 263 75 113 98 77 95 204 220 130 294 213 201 181 118 171 119 273 276 271 162 247 178 343 291 271 309 320 233 160 253 139 204 210 159 153 164 209 127 124 172 172 171 275 239 235 239 241 243 307 14 226 101 263 83 133 132 133 130 131 140 133 130 113 72 51 15 354
146 242 262 247 217 215 184 171 122 198 257 225 176 202 204 229 247 240 247 253 101 198 131 74 151 132 249 212 241 210 172 308 126 109 200 153 226 198 210 198 211 137 159 46 237 4 208 234 355 33 189 138 176 74 127 48 325 190 179 71 58 219 171 237 141 275 310 321 297 155 198 177 204 56 89 120 130 126 147 131 120 65 59 45 47 24 7 351
129 237 188 240 228 153 152 145 157 184 219 181 193 214 219 194 225 164 242 55 100 155 138 172 156 241 245 245 199 185 1 177 359 98 260 196 220 225 205 180 172 183 166 180 181 268 352 259 245 150 342 81 30 336 216 111 202 349 70 218 204 74 145 306 332 68 49 358 259 165 276 261 121 44 127 129 151 152 142 122 83 67 42 50 26 35 341 345
243 171 233 198 216 133 145 141 154 169 219 201 208 230 217 243 226 258 181 180 203 88 101 326 242 170 234 239 178 200 210 60 254 130 270 157 273 213 230 187 126 179 215 144 295 195 206 276 212 157 233 106 334 6 290 20 267 98 197 220 217 119 129 125 234 355 332 248 268 150 229 266 156 265 166 144 184 170 140 106 86 94 50 68 269 357 10 337
186 225 262 275 170 136 141 152 160 184 221 199 226 238 204 248 216 236 89 105 349 69 201 160 250 163 254 205 263 139 189 164 197 135 253 168 267 151 157 157 181 184 198 33 162 297 88 298 165 323 27 229 321 351 314 156 5 133 195 326 97 281 299 208 81 261 228 253 283 255 218 229 185 217 158 190 183 177 136 92 77 10 21 343 356 345 353 336
192 77 261 164 112 139 141 160 202 155 174 219 225 245 227 242 247 236 164 171 131 134 203 210 217 219 201 240 101 72 147 186 158 206 41 220 194 172 181 143 218 80 34 104 193 321 28 241 300 277 355 146 8 117 226 171 13 57 359 339 218 93 225 152 194 217 224 269 316 280 288 260 176 209 175 176 168 146 94 95 33 346 334 4 346 345 342 339
174 189 228 127 142 125 150 176 151 180 208 220 212 228 209 244 218 229 205 178 211 160 221 213 204 254 220 235 192 188 204 212 186 236 172 227 214 175 174 180 159 136 80 11 135 93 241 127 269 90 300 85 249 180 222 164 181 155 158 227 191 183 249 101 300 156 195 260 248 291 290 295 178 28 118 126 141 142 136 176 247 245 249 31 4 354 345 336
213 252 221 147 138 144 156 180 179 198 218 240 246 244 229 238 209 225 207 191 225 189 219 204 171 213 226 245 250 214 243 196 202 226 204 258 165 289 200 167 125 141 94 24 49 240 109 192 240 131 258 210 219 29 209 184 191 196 182 214 195 166 187 209 257 101 220 217 237 224 265 277 224 240 125 133 111 134 133 140 253 245 70 57 12 350 347 335
176 227 179 148 151 178 170 178 216 198 228 219 219 210 241 227 248 212 187 201 202 221 193 249 244 247 246 235 233 186 202 246 233 221 221 222 188 201 295 131 150 150 145 185 190 218 172 75 174 251 225 246 214 132 3 87 75 244 212 234 178 200 156 190 245 237 51 244 241 262 308 278 148 197 132 131 148 153 155 205 238 183 96 69 13 354 338 330
202 231 34 174 170 192 189 229 194 206 224 232 255 254 246 250 229 186 188 178 212 191 239 223 217 223 239 228 213 230 179 260 242 218 233 183 228 202 249 144 130 153 79 317 41 234 45 185 328 266 316 197 294 154 330 91 46 293 246 224 193 199 197 209 231 195 205 216 180 235 237 251 57 112 144 127 148 176 203 200 166 99 95 49 10 344 330 332
196 199 160 210 191 215 196 207 202 214 227 235 229 245 226 238 205 204 200 184 184 162 212 230 237 207 251 165 192 228 152 274 242 222 246 201 248 52 319 145 158 173 164 218 152 184 124 222 160 300 321 255 266 330 278 98 136 231 225 209 218 288 150 108 93 78 272 234 218 210 242 261 122 195 159 167 181 203 225 291 78 62 38 25 356 340 335 334
132 119 144 160 182 210 207 217 221 221 221 224 227 238 232 234 218 217 211 212 197 208 197 236 224 149 211 156 210 216 196 206 274 208 185 189 212 12 325 72 325 187 43 331 345 181 203 185 140 209 248 277 284 274 256 217 213 225 222 220 207 201 212 149 236 183 239 239 214 230 243 250 187 183 165 190 212 235 287 316 65 84 53 25 348 340 337 333
187 226 159 153 174 235 267 334 336 241 234 223 231 237 232 243 227 214 209 234 207 217 222 240 27 198 200 156 219 225 235 207 198 261 107 238 80 308 100 4 55 63 45 43 12 74 177 342 215 215 236 244 253 92 291 102 115 199 220 196 218 210 216 222 218 210 234 243 237 234 234 267 263 252 281 284 294 287 285 314 24 40 27 1 342 339 336 330
124 227 165 183 135 232 242 219 233 230 232 224 247 220 223 224 222 218 188 236 216 223 232 225 205 170 207 174 220 240 232 212 225 237 241 232 105 75 39 96 82 68 18 68 352 84 68 232 229 226 241 247 261 285 143 160 211 212 200 213 204 214 212 210 207 231 172 54 258 246 229 250 261 274 271 276 274 286 305 323 46 32 7 324 325 333 331 327
223 216 200 181 180 187 210 227 218 229 244 220 244 239 243 232 209 227 175 214 210 197 217 227 218 217 206 199 195 240 218 209 212 235 236 240 112 179 67 101 148 158 135 66 321 137 166 234 237 197 246 253 258 267 225 218 230 232 227 197 209 212 213 217 227 234 214 225 247 262 252 248 258 259 264 249 287 286 293 283 97 312 314 350 352 344 330 320
219 21 231 163 224 203 203 196 198 211 226 223 243 234 242 234 236 223 188 161 219 228 199 235 227 210 214 215 197 240 232 214 241 225 216 201 207 139 189 51 208 141 164 115 51 151 78 249 240 223 261 259 254 254 264 263 267 261 242 219 229 224 225 228 237 235 229 245 256 268 267 265 268 268 277 287 295 288 265 121 92 10 342 358 354 331 319 313
203 194 206 218 231 234 189 172 196 202 225 215 229 227 227 228 242 232 220 187 217 224 189 230 241 206 205 214 211 227 230 214 223 248 181 190 242 184 215 190 127 113 143 178 149 256 166 266 126 213 254 263 254 255 263 265 268 268 260 237 230 237 244 241 242 241 234 248 251 254 261 268 266 262 276 287 280 163 116 44 22 303 41 2 332 317 310 314
208 213 210 208 222 227 232 181 191 197 218 222 225 234 222 225 240 225 228 217 225 217 180 219 229 224 208 214 218 228 232 228 222 235 214 169 224 186 164 236 143 157 160 147 176 238 192 250 96 176 229 274 160 207 238 256 265 268 270 247 236 235 243 239 234 231 221 237 246 253 258 257 263 300 241 251 188 167 187 222 313 36 37 347 315 309 310 323
212 245 212 232 249 207 219 210 208 177 227 219 209 217 219 223 228 208 244 233 234 228 227 216 223 219 227 226 226 228 231 234 244 29 51 2 39 134 193 147 163 158 162 189 170 166 189 182 174 161 207 257 59 143 61 7 308 283 253 239 218 229 233 242 242 234 227 230 242 240 239 245 277 290 237 232 212 228 85 55 40 7 327 311 297 296 327 331